DELTA 1 DEB, 10874

Orbit data source: Space-Track

DELTA 1 DEB, 10874 is space debris in SSO originally from a launch on Thu, 29 Jul 1976 UTC launched from the Air Force Western Test Range (AFWTR). Debris objects in space refer to the collection of defunct objects orbiting the Earth. Examples of debris include non-operational satellites, rocket bodies, and fragments generated from explosions, collisions, or faulty payload assembly.

Loading next visibility...
Identifier
10874, 1976-077DC
Orbit
SSO
Country
Flag of USUS
Related business
Manufacturer
Unknown
Mission
Spacecraft
Bus & Motor
Unknown
Mass
Unknown
Launch date (UTC)
1976-07-29 (49 years ago)
Launch vehicle
Unknown
Launch site
Air Force Western Test Range (AFWTR)
Object type
Payload
Rocket body
Debris
Shape & HBR
Unknown shape, 0.1 m
Radar Cross Section
Small (<0.1 m²)

Expand to show TLE details & history
Last TLE update: 1 day ago

TLE from 1 day ago
0 DELTA 1 DEB
1 10874U 76077DC  26022.87747390  .00002193  00000-0  57412-2 0  9990
2 10874 102.0153 168.6175 0094198 218.4012 300.7972 13.16595580318347
Epoch: 2026-01-22T21:03Z
TLE epoch observation values (Epoch: 2026-01-22T21:03:33.744Z)
Latitude
21.24691°
Longitude
-84.77476°
Altitude
1,164.075 km
Speed
7.29 km/s
True Right ascension
23h 33m 21s
True Declination
21° 08' 14"
Sunlit
Object was in daylight at epoch
Visualization orbit readout
Latitude
Unknown
Longitude
Unknown
Altitude
Unknown
Speed
Unknown
Apparent Right ascension
Unknown
Apparent Declination
Unknown
Sunlit
N/A
Visualization observer readout
Local Sidereal Time
21:59:41
Azimuth
Unknown
Elevation
Unknown
Doppler factor
Unknown
Orbital elements
Apogee altitude
1,266.567 km
Perigee altitude
1,123.888 km
Semi-major axis
7,573.365 km
Eccentricity
0.00942
Inclination
102.0153°
RAAN
168.6175°
Arg. of periapsis
218.4012°
True anomaly
299.86441°
Mean anomaly
300.7972°
Eccentric anomaly
300.33136°
Mean motion
3.29314 °/min
Orbital period
109.32 mins
BSTAR
0.0057412
Loading maneuver chart data...
Computing Atmospheric mass density...
Loading historical data...
Loading historical data...
Loading historical data...
Loading historical data...
Loading historical data...
Loading historical data...
Loading historical data...

Documentation

Showing up to 5 results
|